SB KEPS @ AMSAT $ORB26120.1 2Line Orbital Elements 26120.AMSAT QST de W1STR AMSAT Orbital Elements for Amateur Satellites in TLE Format From Orbital Analysis Office New England Sci-Tech STEM Education Center Natick MA April 30, 2026 To all radio amateurs These element sets describe the orbits of various satellites in use by the amateur radio community. For details see: www.amsat.org/keplerian-elements-formats/ A daily update of element sets is available at: www.amsat.org/tle/daily-bulletin.txt or without bulletin text: www.amsat.org/tle/dailytle.txt AO-07 1 07530U 74089B 26120.01665123 -.00000027 00000-0 12169-3 0 9990 2 07530 101.9927 132.7575 0011990 221.7394 162.4256 12.53697371354488 UO-11 1 14781U 84021B 26120.16137282 .00001345 00000-0 14286-3 0 9994 2 14781 97.8025 86.2877 0007390 355.3219 4.7929 14.90666755249970 AO-27 1 22825U 93061C 26120.17169763 .00000108 00000-0 58298-4 0 9994 2 22825 98.6901 187.5968 0007438 236.7965 123.2505 14.30928863700131 FO-29 1 24278U 96046B 26120.17852378 .00000011 00000-0 48119-4 0 9999 2 24278 98.5296 335.6115 0349170 220.8988 136.5474 13.53271933466675 GO-32 1 25397U 98043D 26119.94777602 .00000069 00000-0 49825-4 0 9998 2 25397 99.0062 111.4935 0001632 36.6482 323.4807 14.24418684444460 ISS 1 25544U 98067A 26120.19993199 .00006779 00000-0 13091-3 0 9997 2 25544 51.6316 177.6251 0007128 6.6336 353.4746 15.49030629564315 NO-44 1 26931U 01043C 26120.10536459 .00000161 00000-0 90964-4 0 9993 2 26931 67.0526 8.6328 0006468 264.0339 96.0026 14.31937006283568 SO-50 1 27607U 02058C 26119.60224970 .00001351 00000-0 17631-3 0 9997 2 27607 64.5517 279.2922 0075609 271.2999 87.9446 14.82938270257254 CO-55 1 27844U 03031E 26119.98704059 .00000329 00000-0 16137-3 0 9998 2 27844 98.6755 129.1503 0008903 332.3520 27.7184 14.24305121184810 RS-22 1 27939U 03042A 26120.27910015 .00000581 00000-0 97912-4 0 9991 2 27939 98.3466 303.2878 0012479 63.3658 57.6904 14.73378675208498 CO-65 1 32785U 08021C 26120.24667169 .00005002 00000-0 32046-3 0 9993 2 32785 97.8249 100.6938 0008806 180.5984 179.5235 15.08989463977963 CO-66 1 32791U 08021J 26119.53678457 .00018228 00000-0 60903-3 0 9999 2 32791 97.7522 115.1790 0005058 109.8166 250.3620 15.31067463979840 RS-30 1 32953U 08025A 26120.21400322 -.00000031 00000-0 -29267-3 0 9997 2 32953 82.5081 25.2778 0020594 56.9481 303.3574 12.43177482813738 SRMSAT 1 37841U 11058D 26120.02638208 .00000433 00000-0 91075-4 0 9994 2 37841 19.9736 350.9773 0011736 34.5595 110.2601 14.11564291751001 ZACUBE-1 1 39417U 13066B 26119.87617661 .00005751 00000-0 44875-3 0 9990 2 39417 97.8124 81.9531 0043751 55.0204 305.5115 15.00788638673484 Delfi-N3xt 1 39428U 13066N 26120.24907740 .00009764 00000-0 85965-3 0 9998 2 39428 97.8352 40.6241 0075626 7.7637 352.4734 14.94483600667461 GOMX-1 1 39430U 13066Q 26120.24441483 .00001507 00000-0 23349-3 0 9993 2 39430 97.6519 323.7277 0127683 231.1402 127.8357 14.69274148662877 LO-74 1 39440U 13066AA 26120.29569903 .00002628 00000-0 24794-3 0 9997 2 39440 97.8881 69.0958 0057696 184.6601 175.4089 14.93418718669842 AO-73 1 39444U 13066AE 26119.85397480 .00010286 00000-0 64730-3 0 9993 2 39444 97.8250 90.3239 0037122 11.3882 348.8178 15.08818068672370 DTUSAT-2 1 40030U 14033W 26119.94699382 .00008587 00000-0 47146-3 0 9990 2 40030 98.0857 114.6386 0009169 49.0531 311.1491 15.14369384645382 LILACSAT-2 1 40908U 15049K 26120.26017887 .00019706 00000-0 35427-3 0 9997 2 40908 97.4718 155.3221 0008662 74.9586 285.2623 15.49855281588321 Horyu-4 1 41340U 16012D 26119.95042692 .00153194 00000-0 10014-2 0 9999 2 41340 30.9894 66.5536 0006383 275.1954 84.7973 15.74236515563169 Lapan A3 1 41603U 16040E 26120.27834477 .00003963 00000-0 12733-3 0 9998 2 41603 97.1485 118.0118 0010297 176.4847 183.6470 15.32789802547477 CAS-2T 1 41847U 16066G 26120.17097456 .00000647 00000-0 10130-3 0 9998 2 41847 98.3830 196.4490 0340927 275.2788 80.9596 14.44572482497866 TechnoSat 1 42829U 17042E 26120.03976452 .00003795 00000-0 27332-3 0 9990 2 42829 97.4235 279.5554 0016099 256.7121 103.2311 15.04663262479469 AO-91 1 43017U 17073E 26120.10429749 .00010542 00000-0 46468-3 0 9993 2 43017 97.4779 348.3225 0154076 134.1660 227.2357 15.11834740458123 S-Net D 1 43186U 18014G 26120.22611040 .00005336 00000-0 27942-3 0 9997 2 43186 97.5405 25.3247 0008359 172.4926 187.6433 15.16214927451496 S-Net B 1 43187U 18014H 26120.23662780 .00005031 00000-0 26380-3 0 9993 2 43187 97.5408 25.3205 0009095 168.7224 191.4214 15.16185349451496 S-Net A 1 43188U 18014J 26120.15922609 .00005516 00000-0 28863-3 0 9990 2 43188 97.5417 25.4434 0008957 169.7375 190.4042 15.16220627451482 S-Net C 1 43189U 18014K 26120.24023906 .00004875 00000-0 25576-3 0 9998 2 43189 97.5435 25.5913 0010560 163.6603 196.4972 15.16176667450049 Ten-Koh 1 43677U 18084G 26119.98457740 .00002471 00000-0 18981-3 0 9995 2 43677 98.0791 310.3236 0007413 281.6732 78.3660 15.02735535408924 PO-101 1 43678U 18084H 26120.28418984 .00002195 00000-0 18049-3 0 9996 2 43678 98.1069 314.4512 0012971 335.3645 24.6956 15.00210967409031 QO-100 1 43700U 18090A 26120.20680911 .00000146 00000-0 00000-0 0 9991 2 43700 0.0133 264.0405 0001677 168.3200 246.0900 1.00276837 27199 MinXSS-2 1 43758U 18099A 26120.17251933 .00037732 00000-0 83193-3 0 9995 2 43758 97.4564 195.1661 0008699 86.6211 273.6032 15.43781740406710 AO-95 1 43770U 18099N 26120.14912640 .00011872 00000-0 46841-3 0 9991 2 43770 97.4423 180.6034 0009975 149.6725 210.5092 15.25656511405890 SNUSat 2 1 43782U 18099AA 26120.12490166 .00009198 00000-0 41590-3 0 9990 2 43782 97.4103 174.2646 0012125 104.1972 256.0612 15.21086114405724 SnugLite 1 43784U 18099AC 26120.09846887 .00013439 00000-0 52309-3 0 9996 2 43784 97.3912 174.8807 0004539 101.6699 258.5049 15.26113123405981 ITASat 1 1 43786U 18099AE 26120.12217801 .00007207 00000-0 35253-3 0 9995 2 43786 97.4070 172.6057 0013651 154.2061 205.9857 15.18426062405617 EAGLET 1 1 43790U 18099AJ 26120.09628268 .00004930 00000-0 28585-3 0 9999 2 43790 97.4274 171.0418 0012218 146.0476 214.1540 15.12563671405061 ESEO 1 43792U 18099AL 26120.01705210 .00001139 00000-0 86261-4 0 9990 2 43792 97.4012 159.4631 0013372 131.8940 228.3430 15.04094038404566 JO-97 1 43803U 18099AX 26120.11508273 .00018725 00000-0 60513-3 0 9994 2 43803 97.4167 182.8320 0007262 88.0469 272.1605 15.32115447406264 Suomi 100 1 43804U 18099AY 26120.13373230 .00012858 00000-0 48218-3 0 9999 2 43804 97.4227 180.7383 0011754 92.7798 267.4787 15.27309788406081 ISAT 1 43879U 18111D 26120.22047307 .00083299 00000-0 11096-2 0 9999 2 43879 97.5909 52.0542 0008786 107.2588 252.9629 15.57817185403684 UWE-4 1 43880U 18111E 26120.27520350 .00033104 00000-0 74416-3 0 9996 2 43880 97.5865 46.5727 0010273 127.1071 233.1116 15.43217639403384 Sparrow 1 43881U 18111F 26120.27752165 .00107051 00000-0 11478-2 0 9999 2 43881 97.6126 57.0340 0007112 124.0390 236.1545 15.63440571403869 Prox-1 1 44339U 19036A 26120.10770695 .00015990 00000-0 16095-2 0 9995 2 44339 23.9953 75.1193 0006557 194.7556 165.2752 14.89453634366293 Taurus 1 1 44530U 19059C 26120.31470160 .00005251 00000-0 85290-3 0 9993 2 44530 98.6371 282.2033 0009809 103.8184 256.4113 14.71559806351606 TO-108 1 44881U 19093C 26120.25140081 .00000659 00000-0 80568-4 0 9990 2 44881 97.7550 193.6508 0012126 242.4854 117.5130 14.86440368344297 RS-44 1 44909U 19096E 26120.15816345 .00000020 00000-0 43020-4 0 9990 2 44909 82.5258 11.6223 0216382 256.6440 101.0456 12.79747940296208 SALSAT 1 46495U 20068K 26119.99234150 .00008776 00000-0 31318-3 0 9993 2 46495 97.8854 120.1513 0011649 109.1065 251.1436 15.29076272307998 CSS (TIANHE-1) 1 48274U 21035A 26120.05943077 .00028922 00000-0 30954-3 0 9999 2 48274 41.4672 255.0072 0006676 299.5527 60.4646 15.63191066285645 CUTE 1 49263U 21088D 26120.21326596 .00074694 00000-0 49935-3 0 9991 2 49263 97.4200 215.6126 0001035 147.1033 213.0297 15.75094036254969 TeikyoSat 4 1 49396U 21102B 26120.05850035 .00001745 00000-0 11302-3 0 9991 2 49396 97.3708 151.4093 0013815 98.2583 262.0214 15.09332582245469 Z-Sat 1 49399U 21102E 26120.27782159 .00004162 00000-0 20773-3 0 9997 2 49399 97.3371 157.0574 0018292 58.0500 302.2510 15.17892714246173 KOSEN 1 1 49402U 21102H 26120.09201005 .00008191 00000-0 31881-3 0 9996 2 49402 97.3231 163.1966 0014252 25.3341 334.8594 15.26163954246684 HO-113 1 50466U 21131B 26120.29339938 .00000449 00000-0 15254-3 0 9993 2 50466 98.4954 212.9496 0003099 230.8616 129.2298 14.41310250228211 SNUGLITE 2 1 52899U 22065F 26120.26648376 .00001122 00000-0 22206-3 0 9992 2 52899 98.2133 265.2022 0007844 165.2351 194.9082 14.64254588203988 UmKA 1 (RS40S) 1 57172U 23091G 26120.25106789 .00006237 00000-0 29007-3 0 9995 2 57172 97.5089 179.1438 0011248 288.4490 71.5522 15.20270623156727 CubeBel-2 (EU11S) 1 57175U 23091K 26120.26497575 .00013152 00000-0 48290-3 0 9994 2 57175 97.5087 183.0888 0008424 284.8384 75.1921 15.28035451156982 RS-38S 1 57189U 23091Z 26120.24110684 .00016979 00000-0 50955-3 0 9991 2 57189 97.5121 188.8173 0006457 231.5251 128.5413 15.34506366157336 SONATE-2 1 59112U 24043Q 26120.19236263 .00040293 00000-0 59322-3 0 9996 2 59112 97.5479 267.7927 0006536 23.8041 336.3514 15.55308178120426 GRBBeta 1 60237U 24128C 26120.16300868 .00004275 00000-0 29747-3 0 9998 2 60237 61.9921 24.7077 0046692 124.5499 236.0014 15.06246315 99036 Curium One 1 60242U 24128H 26120.16140336 .00008653 00000-0 50475-3 0 9992 2 60242 61.9807 15.7720 0046240 121.0493 239.5154 15.11732947 99192 ROBUSTA-3A 1 60243U 24128J 26120.09989132 .00009048 00000-0 53854-3 0 9993 2 60243 61.9886 18.1988 0047365 118.4538 242.1341 15.10918752 99155 CatSat 1 60246U 24125J 26120.22835337 .00050861 00000-0 78469-3 0 9993 2 60246 97.2137 332.2847 0023134 4.2486 355.8960 15.53679371 99938 HYPERVIEW-1G (RS66S) 1 61772U 24199AP 26120.26797632 .00093030 00000-0 91070-3 0 9996 2 61772 97.2978 357.9466 0009077 96.5096 263.7198 15.65778878127159 AO-123 1 61781U 24199AY 26120.26084829 .00008347 00000-0 24751-3 0 9992 2 61781 97.3071 349.3725 0015711 117.8545 242.4293 15.34961671126571 JINJUSat 1B 1 63210U 25052A 26120.22642150 .00017291 00000-0 56137-3 0 9994 2 63210 97.4060 16.9607 0001350 231.0785 129.0337 15.32008456 62753 NUSHSAT 1 1 63211U 25052B 26120.27601557 .00021636 00000-0 65674-3 0 9990 2 63211 97.4041 17.4251 0000983 234.2181 125.8970 15.34111019 62793 TEVEL2-4 1 63213U 25052D 26119.96794197 .00019605 00000-0 61811-3 0 9991 2 63213 97.3964 16.3300 0000415 326.2066 33.9149 15.32922090 62722 TEVEL2-5 1 63214U 25052E 26120.24454684 .00020069 00000-0 63537-3 0 9992 2 63214 97.3959 16.5675 0000458 316.8242 43.2964 15.32784961 62768 TEVEL2-6 1 63215U 25052F 26120.25571389 .00019960 00000-0 63271-3 0 9999 2 63215 97.3963 16.5637 0000546 315.1850 44.9348 15.32746022 62767 TEVEL2-1 1 63217U 25052H 26120.20375524 .00018873 00000-0 60749-3 0 9998 2 63217 97.3936 16.1905 0001122 346.4501 13.6710 15.32266544 62744 TEVEL2-3 1 63218U 25052J 26120.26526756 .00018849 00000-0 60581-3 0 9997 2 63218 97.3939 16.2684 0001140 345.4037 14.7172 15.32314603 62751 TEVEL2-2 1 63219U 25052K 26120.13897758 .00018750 00000-0 60348-3 0 9999 2 63219 97.3937 16.1273 0001134 348.2801 11.8414 15.32269389 62731 TEVEL2-9 1 63237U 25052AD 26120.25266313 .00017875 00000-0 60908-3 0 9998 2 63237 97.4000 15.7145 0004802 329.3551 30.7408 15.30428497 62696 TEVEL2-7 1 63238U 25052AE 26120.21958078 .00016618 00000-0 57106-3 0 9991 2 63238 97.4003 15.6165 0004923 329.3629 30.7323 15.30168799 62682 TEVEL2-8 1 63239U 25052AF 26120.22729150 .00017029 00000-0 58540-3 0 9990 2 63239 97.4001 15.6027 0004898 330.8661 29.2306 15.30151223 62680 HYDRA-W 1 63490U 25052BL 26113.93882235 .05662091 24406-5 29537-2 0 9997 2 63490 97.3690 18.2798 0008685 203.5899 156.4993 16.20186780 62336 HADES-ICM (SO-125) 1 63492U 25052BN 26120.17329350 .00491395 00000-0 25041-2 0 9994 2 63492 97.3820 23.2455 0004471 153.3500 206.7998 15.80099034 63200 SPIRONE 1 66657U 25274H 26119.74629150 .00002862 00000-0 27803-3 0 9994 2 66657 97.7473 49.7412 0012384 167.9028 192.2491 14.93342579 22994 K-HERO 1 66660U 25274L 26119.69761846 .00002383 00000-0 22984-3 0 9994 2 66660 97.7480 49.8184 0014003 173.6167 186.5233 14.93776114 22997 SNUGLITE-III DURI 1 66661U 25274M 26120.08892308 .00002239 00000-0 21590-3 0 9990 2 66661 97.7479 50.2228 0014674 173.5797 186.5614 14.93837765 23054 SilverSat 1 66909U 98067XV 26113.44966717 .07226154 12288-4 11979-2 0 9998 2 66909 51.6027 190.0749 0007952 333.4666 26.5949 16.32457272 22308 SAKHACUBE-CHOLBON 1 67290U 25313AU 26120.17704318 .00010510 00000-0 43612-3 0 9996 2 67290 97.3952 195.8419 0010285 157.5782 202.5907 15.23988616 18664 RS95S (QMR-KWT-2) 1 67291U 25313AV 26120.20320033 .00015023 00000-0 60321-3 0 9999 2 67291 97.3951 195.9575 0010147 156.6625 203.5076 15.25010223 18672 Ten-Koh2 1 68261U 25241B 26120.19879632 .00006636 00000-0 28971-3 0 9994 2 68261 51.6488 187.9364 0005785 349.7955 10.2904 15.23277988 7591 JACK-002 1 68417U 26067B 26120.14121954 .00007502 00000-0 36384-3 0 9996 2 68417 97.4536 79.3596 0004156 88.8777 271.2933 15.18781641 4656 DISCO 2 1 68431U 26067R 26120.15039202 .00009225 00000-0 45213-3 0 9992 2 68431 97.4573 79.3627 0003602 128.1662 231.9898 15.18354586 4651 HADES-SA (SpinnyONE) 1 68446U 26067AG 26120.17443371 .00020312 00000-0 10160-2 0 9998 2 68446 97.4379 79.2604 0005136 228.4326 131.6468 15.17446217 4640 PARUS-6U1 1 68456U 26067AS 26120.17640497 .00006475 00000-0 33086-3 0 9994 2 68456 97.4520 79.3087 0004360 214.7280 145.3670 15.17006086 4654 SAL-E 1 68458U 26067AU 26120.17646567 .00008803 00000-0 44778-3 0 9997 2 68458 97.4446 79.2810 0004289 226.7442 133.3434 15.17063303 4659 IO-86 1 40931U 25360.30710720 .00000000 00000-0 12800-3 0 00 2 40931 6.0006 332.5373 0012733 338.8432 8.1437 14.79075515 01 LILIUM-4 1 71922C 26067AC 26089.50133053 -.00014632 00000+0 -74472-3 0 04 2 71922 97.4497 49.1617 0004341 5.9603 355.7042 15.16896692 16 /EX